VLG5BU LEPA-LEBL

Flight info

Callsign VLG5BU
Flight time 0h 34m
Altitude 18000
Route ESPOR L2 NEPAL
Aircraft A320/M-SDE3FGHIRWY/LB1

Departure

Time 2026-05-01 08:21
Airport Palma de Mallorca Airport (LEPA)

Arrival

Time 2026-05-01 08:55
Airport Josep Tarradellas Barcelona-El Prat Airport (LEBL)
Time Latitude Longitude Altitude Speed Heading
2026-05-01 08:02 39.54716 2.73664 37 ft 0 kts 58°
2026-05-01 08:14 39.54711 2.73654 37 ft 2 kts 58°
2026-05-01 08:14 39.54703 2.73638 38 ft 2 kts 58°
2026-05-01 08:14 39.54695 2.73622 38 ft 2 kts 58°
2026-05-01 08:14 39.54688 2.73605 36 ft 2 kts 108°
2026-05-01 08:15 39.54692 2.73591 34 ft 1 kts 146°
2026-05-01 08:15 39.54693 2.73590 36 ft 0 kts 146°
2026-05-01 08:17 39.54693 2.73591 33 ft 0 kts 146°
2026-05-01 08:17 39.54681 2.73600 34 ft 3 kts 147°
2026-05-01 08:17 39.54650 2.73619 37 ft 6 kts 164°
2026-05-01 08:17 39.54598 2.73636 36 ft 9 kts 161°
2026-05-01 08:18 39.54540 2.73601 38 ft 11 kts 236°
2026-05-01 08:18 39.54438 2.73387 38 ft 17 kts 238°
2026-05-01 08:19 39.54303 2.73098 38 ft 18 kts 239°
2026-05-01 08:19 39.54243 2.72971 38 ft 12 kts 238°
2026-05-01 08:19 39.54172 2.72923 38 ft 14 kts 149°
2026-05-01 08:19 39.54150 2.73052 38 ft 17 kts 89°
2026-05-01 08:20 39.54153 2.73213 38 ft 19 kts 82°
2026-05-01 08:20 39.54239 2.73406 38 ft 46 kts 58°
2026-05-01 08:20 39.54530 2.74022 38 ft 111 kts 58°
2026-05-01 08:20 39.55019 2.75058 119 ft 149 kts 59°
2026-05-01 08:21 39.55569 2.76221 685 ft 153 kts 59°
2026-05-01 08:21 39.56127 2.77421 1255 ft 157 kts 59°
2026-05-01 08:21 39.56724 2.78713 1620 ft 177 kts 59°
2026-05-01 08:21 39.57389 2.80168 1979 ft 199 kts 60°
2026-05-01 08:22 39.58102 2.81749 2696 ft 205 kts 60°
2026-05-01 08:22 39.58825 2.83353 3524 ft 208 kts 60°
2026-05-01 08:22 39.59567 2.84992 4319 ft 213 kts 61°
2026-05-01 08:22 39.60326 2.86660 5147 ft 217 kts 61°
2026-05-01 08:23 39.61098 2.88358 5964 ft 220 kts 61°
2026-05-01 08:23 39.62010 2.89977 6736 ft 227 kts 41°
2026-05-01 08:23 39.63454 2.90852 7443 ft 237 kts
2026-05-01 08:23 39.65098 2.90552 8116 ft 246 kts 333°
2026-05-01 08:24 39.66352 2.89072 8866 ft 247 kts 297°
2026-05-01 08:24 39.67023 2.87032 9720 ft 246 kts 287°
2026-05-01 08:24 39.67549 2.84927 10539 ft 245 kts 283°
2026-05-01 08:24 39.67964 2.82788 11353 ft 244 kts 280°
2026-05-01 08:25 39.68270 2.80626 12140 ft 244 kts 277°
2026-05-01 08:25 39.68467 2.78437 12944 ft 245 kts 274°
2026-05-01 08:25 39.68594 2.76220 13672 ft 249 kts 277°
2026-05-01 08:25 39.68922 2.73992 14237 ft 259 kts 285°
2026-05-01 08:26 39.69546 2.71688 14437 ft 282 kts 294°
2026-05-01 08:26 39.70375 2.69259 14612 ft 306 kts 294°
2026-05-01 08:26 39.71257 2.66680 14745 ft 328 kts 293°
2026-05-01 08:26 39.72210 2.63889 14974 ft 346 kts 293°
2026-05-01 08:27 39.73193 2.61007 15519 ft 352 kts 293°
2026-05-01 08:27 39.74189 2.58075 16094 ft 357 kts 293°
2026-05-01 08:27 39.75195 2.55111 16708 ft 361 kts 293°
2026-05-01 08:27 39.76206 2.52114 17352 ft 363 kts 293°
2026-05-01 08:28 39.77223 2.49089 17941 ft 367 kts 293°
2026-05-01 08:28 39.78249 2.46036 18144 ft 369 kts 293°
2026-05-01 08:28 39.79286 2.42942 18174 ft 374 kts 292°
2026-05-01 08:28 39.80330 2.39833 18175 ft 375 kts 292°
2026-05-01 08:29 39.81464 2.36767 18176 ft 378 kts 300°
2026-05-01 08:29 39.83039 2.34042 18179 ft 378 kts 313°
2026-05-01 08:29 39.85031 2.31799 18180 ft 380 kts 324°
2026-05-01 08:29 39.87356 2.30152 18179 ft 382 kts 336°
2026-05-01 08:30 39.89844 2.28909 18185 ft 383 kts 338°
2026-05-01 08:30 39.92337 2.27671 18185 ft 384 kts 337°
2026-05-01 08:30 39.94830 2.26429 18183 ft 383 kts 338°
2026-05-01 08:30 39.97321 2.25182 18183 ft 384 kts 338°
2026-05-01 08:31 39.99813 2.23929 18182 ft 384 kts 337°
2026-05-01 08:31 40.02306 2.22676 18195 ft 384 kts 337°
2026-05-01 08:31 40.04801 2.21425 18196 ft 384 kts 338°
2026-05-01 08:31 40.07298 2.20172 18194 ft 385 kts 337°
2026-05-01 08:32 40.09795 2.18914 18193 ft 385 kts 337°
2026-05-01 08:32 40.12261 2.17670 18200 ft 385 kts 338°
2026-05-01 08:32 40.14793 2.16390 18203 ft 385 kts 338°
2026-05-01 08:32 40.17256 2.15142 18205 ft 385 kts 337°
2026-05-01 08:33 40.19756 2.13876 18210 ft 385 kts 338°
2026-05-01 08:33 40.22257 2.12613 18211 ft 385 kts 337°
2026-05-01 08:33 40.24759 2.11352 18223 ft 385 kts 336°
2026-05-01 08:33 40.27256 2.10094 18226 ft 384 kts 337°
2026-05-01 08:34 40.29759 2.08871 18223 ft 384 kts 339°
2026-05-01 08:34 40.32289 2.07762 18223 ft 384 kts 340°
2026-05-01 08:34 40.34840 2.06720 18220 ft 384 kts 341°
2026-05-01 08:34 40.37397 2.05707 18228 ft 384 kts 341°
2026-05-01 08:35 40.39951 2.04693 18228 ft 384 kts 342°
2026-05-01 08:35 40.42503 2.03666 18226 ft 383 kts 340°
2026-05-01 08:35 40.45047 2.02624 18228 ft 383 kts 341°
2026-05-01 08:35 40.47590 2.01571 18233 ft 383 kts 340°
2026-05-01 08:36 40.50131 2.00512 18232 ft 383 kts 341°
2026-05-01 08:36 40.52671 1.99445 18230 ft 383 kts 340°
2026-05-01 08:36 40.55188 1.98385 18204 ft 375 kts 340°
2026-05-01 08:36 40.57636 1.97355 17425 ft 366 kts 340°
2026-05-01 08:37 40.60041 1.96346 16721 ft 355 kts 341°
2026-05-01 08:37 40.62335 1.95388 16294 ft 338 kts 341°
2026-05-01 08:37 40.64529 1.94474 15841 ft 324 kts 341°
2026-05-01 08:37 40.66630 1.93578 15432 ft 311 kts 338°
2026-05-01 08:38 40.68557 1.92340 15037 ft 308 kts 327°
2026-05-01 08:38 40.70256 1.90632 14664 ft 307 kts 316°
2026-05-01 08:38 40.71686 1.88549 14278 ft 307 kts 308°
2026-05-01 08:38 40.73028 1.86357 13838 ft 308 kts 308°
2026-05-01 08:39 40.74376 1.84158 13395 ft 308 kts 309°
2026-05-01 08:39 40.75722 1.81964 12969 ft 308 kts 309°
2026-05-01 08:39 40.77068 1.79769 12543 ft 308 kts 309°
2026-05-01 08:39 40.78414 1.77574 12138 ft 307 kts 309°
2026-05-01 08:40 40.81097 1.73174 11279 ft 308 kts 309°
2026-05-01 08:40 40.82439 1.70970 10859 ft 308 kts 309°
2026-05-01 08:40 40.83785 1.68760 10465 ft 308 kts 309°
2026-05-01 08:41 40.85190 1.66690 10294 ft 299 kts 321°
2026-05-01 08:41 40.86979 1.65414 10206 ft 292 kts 344°
2026-05-01 08:41 40.88981 1.65125 10100 ft 291 kts
2026-05-01 08:41 40.90283 1.65492 9997 ft 289 kts 21°
2026-05-01 08:42 40.92076 1.66678 9839 ft 289 kts 31°
2026-05-01 08:42 40.93831 1.67963 9678 ft 288 kts 30°
2026-05-01 08:42 40.95583 1.69253 9517 ft 288 kts 31°
2026-05-01 08:42 40.97211 1.70759 9361 ft 284 kts 45°
2026-05-01 08:43 40.98487 1.72731 9211 ft 282 kts 57°
2026-05-01 08:43 40.99570 1.74897 9061 ft 282 kts 58°
2026-05-01 08:43 41.00647 1.77053 8911 ft 280 kts 58°
2026-05-01 08:43 41.01722 1.79203 8767 ft 280 kts 58°
2026-05-01 08:44 41.02796 1.81349 8618 ft 279 kts 58°
2026-05-01 08:44 41.03860 1.83467 8473 ft 270 kts 58°
2026-05-01 08:44 41.04881 1.85454 8309 ft 253 kts 52°
2026-05-01 08:44 41.06226 1.86869 8018 ft 246 kts 25°
2026-05-01 08:45 41.07913 1.87282 7901 ft 251 kts 356°
2026-05-01 08:45 41.09595 1.86627 7769 ft 256 kts 337°
2026-05-01 08:45 41.11200 1.85632 7695 ft 254 kts 330°
2026-05-01 08:45 41.12447 1.83985 7579 ft 256 kts 298°
2026-05-01 08:46 41.12897 1.81740 7428 ft 254 kts 266°
2026-05-01 08:46 41.12476 1.79525 7280 ft 251 kts 243°
2026-05-01 08:46 41.11746 1.77418 7114 ft 252 kts 243°
2026-05-01 08:46 41.11005 1.75292 6956 ft 254 kts 243°
2026-05-01 08:47 41.10270 1.73162 6774 ft 256 kts 245°
2026-05-01 08:47 41.10003 1.70843 6222 ft 258 kts 280°
2026-05-01 08:47 41.10738 1.68758 5859 ft 246 kts 314°
2026-05-01 08:47 41.12091 1.67490 5638 ft 234 kts 344°
2026-05-01 08:48 41.13642 1.67170 5435 ft 223 kts
2026-05-01 08:48 41.15090 1.67730 5282 ft 216 kts 33°
2026-05-01 08:48 41.16206 1.69001 5117 ft 209 kts 56°
2026-05-01 08:48 41.16886 1.70685 4960 ft 206 kts 68°
2026-05-01 08:49 41.17483 1.72415 4797 ft 206 kts 68°
2026-05-01 08:49 41.18085 1.74152 4509 ft 207 kts 67°
2026-05-01 08:49 41.18678 1.75862 4402 ft 203 kts 67°
2026-05-01 08:49 41.19267 1.77562 4329 ft 203 kts 68°
2026-05-01 08:50 41.19855 1.79259 4244 ft 202 kts 67°
2026-05-01 08:50 41.20441 1.80949 4154 ft 202 kts 67°
2026-05-01 08:50 41.21026 1.82639 3945 ft 200 kts 67°
2026-05-01 08:50 41.21601 1.84301 3700 ft 197 kts 67°
2026-05-01 08:51 41.22170 1.85948 3448 ft 195 kts 67°
2026-05-01 08:51 41.22734 1.87581 3199 ft 193 kts 67°
2026-05-01 08:51 41.23291 1.89194 2940 ft 191 kts 67°
2026-05-01 08:51 41.23841 1.90788 2697 ft 189 kts 66°
2026-05-01 08:52 41.24384 1.92361 2437 ft 186 kts 67°
2026-05-01 08:52 41.24909 1.93883 2187 ft 177 kts 66°
2026-05-01 08:52 41.25413 1.95347 1987 ft 168 kts 65°
2026-05-01 08:52 41.25879 1.96700 1752 ft 155 kts 65°
2026-05-01 08:53 41.26309 1.97953 1537 ft 142 kts 64°
2026-05-01 08:53 41.26698 1.99083 1348 ft 127 kts 66°
2026-05-01 08:53 41.27058 2.00128 1204 ft 121 kts 64°
2026-05-01 08:53 41.27403 2.01132 1045 ft 120 kts 63°
2026-05-01 08:54 41.27750 2.02142 885 ft 119 kts 64°
2026-05-01 08:54 41.28097 2.03152 725 ft 123 kts 64°
2026-05-01 08:54 41.28449 2.04175 559 ft 120 kts 65°
2026-05-01 08:54 41.28807 2.05210 366 ft 125 kts 64°
2026-05-01 08:55 41.29169 2.06250 211 ft 124 kts 65°
2026-05-01 08:55 41.29522 2.07292 85 ft 124 kts 66°
2026-05-01 08:55 41.29856 2.08282 25 ft 103 kts 65°
2026-05-01 08:55 41.30081 2.08936 19 ft 37 kts 65°
2026-05-01 08:56 41.30129 2.09134 17 ft 22 kts 81°
2026-05-01 08:56 41.30133 2.09341 15 ft 22 kts 97°
2026-05-01 08:56 41.30065 2.09450 16 ft 17 kts 156°
2026-05-01 08:56 41.29956 2.09439 16 ft 19 kts 232°
2026-05-01 08:57 41.29902 2.09272 17 ft 21 kts 246°
2026-05-01 08:57 41.29840 2.09088 16 ft 23 kts 244°
2026-05-01 08:57 41.29772 2.08894 20 ft 24 kts 245°
2026-05-01 08:57 41.29698 2.08678 17 ft 27 kts 246°
2026-05-01 08:58 41.29620 2.08450 19 ft 28 kts 245°
2026-05-01 08:58 41.29540 2.08287 16 ft 18 kts 192°
2026-05-01 08:58 41.29477 2.08273 19 ft 6 kts 246°
2026-05-01 08:58 41.29488 2.08206 16 ft 9 kts 284°
2026-05-01 08:59 41.29492 2.08184 16 ft 0 kts 284°